Weather observations for the past three days for
Las Cruces, Las Cruces International Airport
Imperial (Metric)
Date Time (mdt) Wind (mph) Vis. (mi.) Weather Sky Cond. Temperature (ºF) Relative Humidity Wind Chill (°F) Heat Index (°F) Pressure Precipitation (in)
Air Dwpt 6 hour altimeter (in) sea level (mb) 1 hr 3 hr 6 hr
Max. Min.
22 21:35 N 16 10.00 Fair CLR 84.7 57.7 40% 84 30.1 0.0
22 21:15 N 14 10.00 Fair CLR 84.7 58.3 41% 84 30.09 0.0
22 20:55 N 14 10.00 Fair CLR 85.1 57.6 39% 84 30.08 0.0
22 20:35 N 13 G 24 10.00 Partly Cloudy SCT110 85.6 57 38% 85 30.08 0.0
22 20:15 N 17 G 23 10.00 Overcast OVC110 87.3 56.7 35% 86 30.07 0.0
22 19:55 N 14 10.00 Partly Cloudy SCT100 89.4 56.3 33% 88 30.06 0.0
22 19:35 E 5 10.00 Fair CLR 94.3 48.6 21% 91 30.05 0.0
22 19:15 E 6 10.00 Fair CLR 95 49.1 21% 92 30.05 0.0
22 18:55 NE 8 10.00 Fair CLR 95.7 49.3 21% 92 30.04 0.0
22 18:35 SE 6 10.00 Fair CLR 95.9 49.1 20% 93 30.05 0.0
22 18:15 S 6 10.00 Fair CLR 95.9 49.6 21% 93 30.05 0.0
22 17:55 E 3 10.00 Fair CLR 96.8 48.9 97.9 88.7 20% 93 30.05 0.0
22 17:35 E 8 10.00 Fair CLR 96.3 49.3 20% 93 30.06 0.0
22 17:15 E 8 10.00 Fair CLR 97 47.8 19% 93 30.07 0.0
22 16:55 SE 14 10.00 Fair CLR 97.9 49.6 19% 95 30.08 0.0
22 16:35 SE 9 10.00 Fair CLR 97.5 50.2 20% 94 30.08 0.0
22 16:15 E 13 G 18 10.00 Fair CLR 95.7 51.6 22% 93 30.08 0.0
22 15:55 SE 5 G 17 10.00 Fair CLR 95 51.8 23% 92 30.1 0.0
22 15:35 S 6 10.00 Partly Cloudy SCT075 96.3 53.1 23% 94 30.1 0.0
22 15:15 SE 7 10.00 Partly Cloudy SCT075 95.7 53.6 24% 93 30.11 0.0
22 14:55 SE 6 G 17 10.00 Partly Cloudy SCT075 96.4 54 24% 94 30.12 0.0
22 14:35 S 5 10.00 Fair CLR 94.1 54 26% 92 30.12 0.0
22 14:15 N 6 10.00 Fair CLR 94.5 54.5 26% 92 30.13 0.0
22 13:55 SE 6 10.00 Fair CLR 94.1 54.9 27% 92 30.14 0.0
22 13:35 E 7 10.00 Partly Cloudy SCT065 92.5 55.4 29% 91 30.14 0.0
22 13:15 E 6 10.00 Partly Cloudy SCT065 92.1 55.9 30% 90 30.15 0.0
22 12:55 S 3 10.00 Fair CLR 91.9 54.1 28% 90 30.16 0.0
22 12:35 NE 7 10.00 Fair CLR 90 55.8 31% 88 30.18 0.0
22 12:15 Calm 10.00 Fair CLR 89.1 54.1 30% 87 30.18 0.0
22 11:55 E 7 10.00 Partly Cloudy SCT055 88.7 56.5 88.7 71.8 34% 87 30.18 0.0
22 11:35 S 3 10.00 Fair CLR 86.9 57.2 37% 86 30.19 0.0
22 11:15 E 7 10.00 Fair CLR 86.4 57.7 38% 85 30.19 0.0
22 10:55 SE 6 10.00 Fair CLR 85.3 58.5 40% 85 30.19 0.0
22 10:35 E 6 10.00 Fair CLR 84.9 58.6 41% 84 30.19 0.0
22 10:15 E 9 G 16 10.00 Fair CLR 84.4 59.4 43% 84 30.19 0.0
22 09:55 SE 10 10.00 Fair CLR 83.1 59.4 45% 83 30.19 0.0
22 09:35 SE 8 10.00 Fair CLR 83.1 59.4 45% 83 30.2 0.0
22 09:15 SE 8 10.00 Fair CLR 82.2 59.5 46% 82 30.2 0.0
22 08:55 E 9 10.00 Fair CLR 81.3 60.1 49% 82 30.2 0.0
22 08:35 E 10 10.00 Fair CLR 80.2 59.9 50% 81 30.2 0.0
22 08:15 SE 10 10.00 Fair CLR 80.1 60.3 51% 81 30.2 0.0
22 07:55 E 9 10.00 Fair CLR 77.9 60.6 55% 79 30.19 0.0
22 07:35 E 6 10.00 Fair CLR 76.1 60.8 59% 78 30.19 0.0
22 07:15 E 5 10.00 Fair CLR 75.6 60.8 60% 78 30.19 0.0
22 06:55 SE 5 10.00 Fair CLR 73.9 60.8 64% 30.18 0.0
22 06:35 Calm 10.00 Fair CLR 72.7 60.6 66% 30.18 0.0
22 06:15 Calm 10.00 Fair CLR 72 60.3 67% 30.17 0.0
22 05:55 SE 5 10.00 Fair CLR 71.8 60.1 79.7 71.6 67% 30.16 0.0
22 05:35 SE 5 10.00 Fair CLR 72 60.1 66% 30.16 0.0
22 05:15 SE 5 10.00 Fair CLR 72.1 59.9 66% 30.16 0.0
22 04:55 SE 6 10.00 Fair CLR 72.9 59.9 64% 30.16 0.0
22 04:35 SE 6 10.00 Fair CLR 73.4 59.9 63% 30.16 0.0
22 04:15 SE 5 10.00 Fair CLR 73 59.7 63% 30.15 0.0
22 03:55 SE 3 10.00 Fair CLR 72.7 59.2 63% 30.15 0.0
22 03:35 Calm 10.00 Fair CLR 73.6 59.2 61% 30.15 0.0
22 03:15 E 3 10.00 Fair CLR 74.3 59.2 59% 30.15 0.0
22 02:55 E 3 10.00 Fair CLR 75.2 59 57% 78 30.15 0.0
22 02:35 E 6 10.00 Partly Cloudy SCT085 75.6 59 57% 78 30.15 0.0
22 02:15 E 6 10.00 Partly Cloudy SCT085 76.3 59 55% 78 30.15 0.0
22 01:55 E 7 10.00 Fair CLR 76.8 59 54% 79 30.15 0.0
22 01:35 E 9 10.00 Fair CLR 77.2 59 54% 79 30.15 0.0
22 01:15 E 9 10.00 Fair CLR 77.9 59 52% 79 30.15 0.0
22 00:55 E 8 10.00 Fair CLR 78.4 59 51% 80 30.15 0.0
22 00:35 E 8 10.00 Fair CLR 79.2 59 50% 80 30.16 0.0
22 00:15 E 10 10.00 Fair CLR 79.3 58.5 49% 80 30.16 0.0
21 23:55 E 12 G 16 10.00 Fair CLR 79.9 58.1 86 79.9 47% 80 30.16 0.0
21 23:35 E 13 G 20 10.00 Fair CLR 80.6 57.7 46% 81 30.15 0.0
21 23:15 E 13 G 21 10.00 Fair CLR 80.8 57.2 45% 81 30.15 0.0
21 22:55 E 16 G 21 10.00 Fair CLR 81.3 56.5 43% 81 30.14 0.0
21 22:35 E 13 G 17 10.00 Fair CLR 81.5 56.3 42% 81 30.14 0.0
21 22:15 E 12 G 17 10.00 Fair CLR 81.7 56.3 42% 81 30.14 0.0
21 21:55 E 8 10.00 Partly Cloudy SCT120 81.7 56.8 43% 81 30.13 0.0
21 21:35 E 12 10.00 Fair CLR 81.9 58.5 45% 82 30.12 0.0
21 21:15 E 9 10.00 Fair CLR 82 59.9 47% 82 30.12 0.0
21 20:55 E 10 10.00 Fair CLR 82.4 60.3 47% 83 30.11 0.0
21 20:35 E 9 10.00 Fair CLR 82.9 59.9 46% 83 30.11 0.0
21 20:15 E 7 10.00 Partly Cloudy SCT080 SCT110 83.3 59.5 45% 83 30.1 0.0
21 19:55 E 7 10.00 Partly Cloudy SCT080 SCT110 84.2 59.5 43% 84 30.1 0.0
21 19:35 E 8 10.00 Partly Cloudy SCT080 84.9 59.9 43% 85 30.1 0.0
21 19:15 E 7 10.00 Partly Cloudy SCT080 85.1 59.2 42% 85 30.1 0.0
21 18:35 E 7 10.00 Partly Cloudy SCT070 SCT120 86 59.2 40% 86 30.09 0.0
21 18:15 E 6 10.00 Partly Cloudy SCT110 86 59 40% 85 30.09 0.0
21 17:55 E 8 10.00 Mostly Cloudy SCT080 SCT090 BKN110 86 60.1 88.7 74.7 42% 86 30.1 0.0
21 17:35 E 8 10.00 Partly Cloudy SCT080 SCT100 SCT120 86.5 59.9 41% 86 30.11 0.0
21 17:15 E 7 G 17 10.00 Partly Cloudy SCT090 SCT110 88.5 59.9 38% 88 30.11 0.0
21 16:55 E 9 G 16 10.00 Mostly Cloudy BKN110 86.9 60.4 41% 87 30.11 0.0
21 16:35 E 8 10.00 Mostly Cloudy BKN100 85.3 61.7 45% 86 30.11 0.0
21 16:15 E 7 10.00 Partly Cloudy SCT085 SCT110 84.9 61.9 46% 85 30.12 0.0
21 15:55 E 14 10.00 Overcast OVC085 86.2 62.1 44% 87 30.14 0.0
21 15:35 E 9 G 16 10.00 Overcast SCT044 BKN085 OVC120 85.6 62.6 46% 86 30.15 0.0
21 15:15 E 10 G 16 10.00 Overcast OVC120 85.3 63.5 48% 86 30.16 0.0
21 14:55 E 9 10.00 Mostly Cloudy SCT070 BKN110 83.3 63.9 52% 85 30.16 0.0
21 14:35 E 9 10.00 Partly Cloudy SCT043 SCT120 82.6 64.6 55% 84 30.18 0.0
21 14:15 E 8 10.00 Fair CLR 81.5 64.6 57% 83 30.19 0.0
21 13:55 E 6 10.00 Fair CLR 80.1 66 62% 82 30.19 0.0
21 13:35 E 10 10.00 Partly Cloudy SCT023 SCT037 SCT120 79.9 67.3 66% 82 30.19 0.0
21 13:15 E 10 10.00 Light Drizzle SCT027 SCT055 BKN110 77.9 67.6 71% 80 30.2 0.0
21 12:55 SE 8 10.00 Light Rain SCT027 SCT050 OVC100 74.8 68.4 80% 30.21 0.0
21 12:35 E 14 G 17 10.00 Light Rain SCT029 SCT049 BKN100 77 66.4 70% 79 30.21 0.0
21 12:15 E 12 G 17 10.00 Mostly Cloudy SCT024 SCT042 BKN120 76.6 66.6 71% 78 30.21 0.0
21 11:55 E 14 10.00 Light Rain BKN022 BKN042 OVC120 76.1 66.9 76.1 71.2 73% 78 30.21 0.0 0.01 0.01
21 11:35 SE 10 G 18 10.00 Mostly Cloudy SCT021 SCT032 BKN120 75.2 67.5 77% 76 30.21 0.0 0.01
21 11:15 E 10 10.00 Rain SCT028 BKN070 OVC110 73.9 68.5 83% 30.22 0.0 0.01
21 10:55 E 12 10.00 Rain SCT060 SCT070 OVC100 73.2 68.5 85% 30.22 0.0
21 10:35 E 10 10.00 Rain OVC090 73.2 68.7 86% 30.22 0.0
21 10:15 E 9 10.00 Light Rain OVC100 72.5 68.9 89% 30.21 0.0
21 09:55 E 12 10.00 Light Rain SCT037 SCT075 OVC095 71.8 70.2 95% 30.21 0.0
21 09:35 E 10 10.00 Rain SCT032 SCT042 OVC100 71.6 69.1 92% 30.21 0.0
21 09:15 E 7 10.00 Light Rain OVC110 71.2 71.2 100% 30.21 0.0
21 08:55 E 8 10.00 Rain OVC110 71.2 67.3 87% 30.21 0.0
21 08:35 SE 10 10.00 Drizzle OVC110 72.1 65.7 80% 30.2 0.0
21 08:15 SE 13 G 18 10.00 Overcast OVC120 72.9 64.4 75% 30.2 0.0
21 07:55 SE 12 10.00 Mostly Cloudy BKN120 72.7 63.9 74% 30.19 0.0
21 07:35 SE 13 10.00 Mostly Cloudy BKN110 72.5 63.9 74% 30.19 0.0
21 07:15 SE 10 10.00 Partly Cloudy SCT120 72.1 64.4 77% 30.18 0.0
21 06:55 SE 12 G 17 10.00 Fair CLR 72.5 63.7 74% 30.17 0.0
21 06:35 SE 14 10.00 Partly Cloudy SCT024 72 63.7 75% 30.16 0.0
21 06:15 E 10 10.00 Partly Cloudy SCT027 71.8 63.5 75% 30.16 0.0
21 05:55 E 10 G 21 10.00 Mostly Cloudy BKN027 72 63.5 75.2 72 75% 30.16 0.0
21 05:35 SE 13 10.00 Partly Cloudy SCT027 72.1 63.1 73% 30.15 0.0
21 05:15 SE 12 G 17 10.00 Partly Cloudy SCT120 72.5 63 72% 30.15 0.0
21 04:55 SE 14 G 20 10.00 Overcast OVC120 72.9 62.8 71% 30.14 0.0
21 04:35 SE 13 G 21 10.00 Mostly Cloudy BKN120 73.4 62.6 69% 30.15 0.0
21 04:15 SE 15 G 22 10.00 Mostly Cloudy BKN110 73.4 62.6 69% 30.14 0.0
21 03:35 SE 12 G 21 10.00 Fair CLR 73.4 62.2 68% 30.14 0.0
21 03:15 SE 13 G 21 10.00 Fair CLR 73.8 62.2 67% 30.14 0.0
21 02:55 SE 14 G 20 10.00 Fair CLR 73.8 62.2 67% 30.14 0.0
21 02:35 E 17 G 21 10.00 Fair CLR 73.8 62.2 67% 30.15 0.0
21 02:15 E 15 G 21 10.00 Fair CLR 73.9 62.2 67% 30.15 0.0
21 01:55 E 13 10.00 Fair CLR 74.1 62.1 66% 30.15 0.0
21 01:35 SE 14 G 17 10.00 Fair CLR 74.3 62.1 66% 30.16 0.0
21 01:15 E 13 G 22 10.00 Partly Cloudy SCT036 74.3 62.1 66% 30.16 0.0
21 00:55 E 16 G 23 10.00 Partly Cloudy SCT038 74.5 61.9 65% 30.18 0.0
21 00:35 SE 18 G 23 10.00 Fair CLR 74.7 61.7 64% 30.18 0.0
21 00:15 SE 14 G 24 10.00 Fair CLR 74.8 61.7 64% 30.18 0.0
20 23:55 SE 15 G 25 10.00 Fair CLR 75.2 61.7 87.6 75.2 63% 77 30.19 0.0
20 23:35 SE 20 G 28 10.00 Fair CLR 75.4 61.7 63% 77 30.19 0.0
20 23:15 SE 17 G 26 10.00 Partly Cloudy SCT090 75.7 61.3 61% 78 30.19 0.0
20 22:55 SE 21 G 26 10.00 Partly Cloudy and Breezy SCT090 76.1 60.8 59% 78 30.19 0.0
20 22:35 E 18 G 25 10.00 Fair CLR 76.5 60.3 57% 78 30.18 0.0
20 22:15 SE 17 G 26 10.00 Fair CLR 77 59.5 55% 79 30.18 0.0
20 21:55 SE 17 G 29 10.00 Fair CLR 77.4 59.4 54% 79 30.17 0.0
20 21:35 E 20 G 31 10.00 Fair CLR 77.9 59.9 54% 79 30.16 0.0
20 21:15 SE 21 G 28 10.00 Fair and Breezy CLR 78.4 60.1 53% 80 30.16 0.0
20 20:55 SE 16 G 29 10.00 Fair CLR 79.3 59.5 51% 80 30.15 0.0
20 20:35 SE 22 G 30 10.00 Fair and Breezy CLR 80.1 59.2 49% 81 30.14 0.0
20 20:15 E 21 G 32 10.00 Fair and Breezy CLR 81 59 47% 81 30.13 0.0
20 19:55 E 17 G 26 10.00 Fair CLR 81.5 59.9 48% 82 30.12 0.0
20 19:35 E 24 G 30 10.00 Partly Cloudy and Breezy SCT055 82.6 59.5 46% 83 30.11 0.0
20 19:15 SE 22 G 29 10.00 Partly Cloudy and Breezy SCT055 84.2 58.8 42% 84 30.1 0.0
20 18:55 SE 18 G 26 10.00 Fair CLR 85.3 59 41% 85 30.09 0.0
20 18:35 SE 21 G 28 10.00 Partly Cloudy and Breezy SCT050 86 58.6 40% 85 30.09 0.0
20 18:15 E 22 G 29 10.00 Partly Cloudy and Breezy SCT050 86.7 58.1 38% 86 30.09 0.0
20 17:55 E 23 G 30 10.00 Fair and Breezy CLR 87.8 57.7 90.7 82.6 36% 87 30.09 0.0
20 17:35 SE 21 G 32 10.00 Fair and Breezy CLR 88.2 57.9 36% 87 30.09 0.0
20 17:15 SE 24 G 30 10.00 Partly Cloudy and Breezy SCT060 SCT070 88.3 57.4 35% 87 30.09 0.0
20 16:55 SE 20 G 29 10.00 Partly Cloudy SCT060 SCT070 90.1 57.2 33% 89 30.09 0.0
20 16:35 SE 21 G 31 10.00 Fair and Breezy CLR 88.5 57 34% 87 30.11 0.0
20 16:15 SE 17 G 24 10.00 Partly Cloudy SCT050 90.3 57.4 33% 89 30.12 0.0
20 15:55 SE 20 G 26 10.00 Mostly Cloudy SCT050 BKN065 88.9 57.6 35% 88 30.12 0.0
20 15:35 SE 16 G 28 10.00 Partly Cloudy SCT050 89.2 57.9 35% 88 30.14 0.0
20 15:15 SE 18 G 24 10.00 Partly Cloudy SCT050 89.4 57.7 34% 88 30.14 0.0
20 14:55 E 18 G 22 10.00 Partly Cloudy SCT050 SCT065 SCT075 89.4 58.1 35% 88 30.15 0.0
20 14:35 E 17 G 23 10.00 Partly Cloudy SCT050 SCT075 86.7 58.5 38% 86 30.16 0.0
20 14:15 E 17 G 23 10.00 Mostly Cloudy SCT050 SCT055 BKN065 87.8 58.1 37% 87 30.17 0.0
20 13:55 SE 16 G 23 10.00 Overcast SCT047 BKN055 OVC065 86.5 57.7 38% 86 30.18 0.0
20 13:35 SE 17 G 25 10.00 Overcast SCT047 BKN055 OVC065 86 59 40% 85 30.19 0.0
20 13:15 SE 18 G 23 10.00 Overcast SCT045 SCT055 OVC065 87.3 58.3 38% 86 30.2 0.0
20 12:55 SE 17 G 23 10.00 Overcast SCT045 SCT050 OVC065 85.1 58.6 41% 85 30.21 0.0
20 12:35 E 18 G 24 10.00 Overcast SCT042 BKN055 OVC065 84.2 59 43% 84 30.21 0.0
20 12:15 SE 16 G 20 10.00 Overcast SCT040 BKN046 OVC065 83.1 59.7 45% 83 30.22 0.0
20 11:55 E 13 G 21 10.00 Mostly Cloudy SCT036 BKN050 BKN065 82.8 59.9 83.3 71.6 46% 83 30.23 0.0
20 11:35 E 18 G 26 10.00 Overcast BKN036 BKN044 OVC065 82 60.3 48% 82 30.23 0.0
20 11:15 E 16 G 20 10.00 Overcast BKN034 BKN044 OVC065 81.1 60.8 50% 82 30.23 0.0
20 10:55 SE 15 G 20 10.00 Overcast BKN034 BKN040 OVC060 80.1 61 52% 81 30.23 0.0
20 10:35 SE 14 G 23 10.00 Overcast SCT033 BKN048 OVC060 78.4 61 55% 80 30.23 0.0
20 10:15 E 16 G 22 10.00 Overcast SCT033 OVC060 78.8 60.8 54% 80 30.23 0.0
20 09:55 SE 17 G 21 10.00 Overcast OVC060 78.8 60.6 54% 80 30.23 0.0
20 09:35 E 17 G 23 10.00 Overcast OVC050 77.9 60.8 56% 79 30.23 0.0
20 09:15 SE 17 10.00 Overcast OVC050 76.1 61 60% 78 30.23 0.0
20 08:55 SE 16 10.00 Overcast OVC050 74.7 61.7 64% 30.23 0.0
20 08:35 E 17 G 25 10.00 Overcast OVC050 74.1 61.7 65% 30.23 0.0
20 08:15 E 16 G 23 10.00 Overcast SCT043 OVC050 73.4 62.2 68% 30.21 0.0
20 07:55 SE 17 G 24 10.00 Overcast SCT043 OVC050 73 62.1 69% 30.21 0.0
20 07:35 SE 20 G 25 10.00 Mostly Cloudy BKN050 72.9 61.7 68% 30.2 0.0
20 07:15 SE 12 G 17 10.00 Mostly Cloudy SCT047 BKN050 72.9 61.9 69% 30.19 0.0
20 06:55 SE 9 10.00 Overcast SCT040 OVC045 73.4 62.1 68% 30.19 0.0
20 06:35 E 13 10.00 Overcast BKN039 OVC044 72.5 62.2 70% 30.17 0.0
20 06:15 SE 18 G 26 10.00 Mostly Cloudy BKN037 BKN045 BKN050 72.1 62.1 71% 30.16 0.0
20 05:55 SE 13 G 20 10.00 Partly Cloudy SCT055 71.8 62.2 78.8 71.8 72% 30.15 0.0
20 05:35 SE 16 G 21 10.00 Fair CLR 72.1 62.6 72% 30.14 0.0
20 05:15 SE 12 G 18 10.00 Fair CLR 72.5 62.8 72% 30.14 0.0
20 04:55 SE 16 10.00 Partly Cloudy SCT029 72.7 62.6 71% 30.13 0.0
20 04:35 SE 13 G 18 10.00 Partly Cloudy SCT031 73.2 62.4 69% 30.12 0.0
20 04:15 SE 15 G 23 10.00 Fair CLR 73.6 62.1 67% 30.11 0.0
20 03:55 SE 14 G 18 10.00 Fair CLR 73.8 62.1 67% 30.11 0.0
20 03:35 SE 16 G 24 10.00 Fair CLR 74.3 62.1 66% 30.1 0.0
20 03:15 SE 20 G 26 10.00 Fair CLR 75.2 61.9 63% 77 30.1 0.0
20 02:55 SE 20 G 32 10.00 Fair CLR 75.4 61.3 62% 78 30.1 0.0
20 02:35 SE 22 G 30 10.00 Fair and Breezy CLR 75.4 61.2 61% 78 30.09 0.0
20 02:15 SE 22 G 31 10.00 Fair and Breezy CLR 75.6 61.2 61% 78 30.1 0.0
20 01:55 SE 21 G 28 10.00 Fair and Breezy CLR 76.1 60.8 59% 78 30.1 0.0
20 01:35 SE 13 G 23 10.00 Fair CLR 76.3 60.3 58% 78 30.09 0.0
20 01:15 E 21 G 29 10.00 Fair and Breezy CLR 76.6 59.9 56% 78 30.08 0.0
20 00:55 SE 20 G 32 10.00 Fair CLR 77.4 59.5 54% 79 30.08 0.0
20 00:35 E 20 G 28 10.00 Fair CLR 77.9 59.5 53% 79 30.08 0.0
20 00:15 SE 15 G 26 10.00 Fair CLR 78.1 59.7 53% 79 30.08 0.0
19 23:55 SE 15 G 30 10.00 Fair CLR 78.8 59.5 103.1 78.8 52% 80 30.07 0.0
19 23:35 E 21 G 35 10.00 Fair and Breezy CLR 79.2 59 50% 80 30.07 0.0
19 23:15 SE 20 G 31 10.00 Fair CLR 79.9 58.3 48% 80 30.07 0.0
19 22:55 SE 14 G 24 10.00 Fair CLR 79.9 58.1 47% 80 30.06 0.0
19 22:35 SE 18 G 25 10.00 Fair CLR 80.2 57.6 46% 81 30.05 0.0
19 22:15 E 12 G 17 10.00 Fair CLR 80.6 58.1 46% 81 30.04 0.0
19 21:55 E 16 G 30 10.00 Fair CLR 81.1 58.1 46% 81 30.03 0.0
Date Time (mdt) Wind (mph) Vis. (mi.) Weather Sky Cond. Air Dwpt Max. Min. Relative Humidity Wind Chill (°F) Heat Index (°F) altimeter (in) sea level (mb) 1 hr 3 hr 6 hr
6 hour
Temperature (ºF) Pressure Precipitation (in)